Orbital Elements at Epoch 2459200.5 (2020-Dec-17.0) TDB
Reference: JPL 20 (heliocentric ecliptic J2000)
Element | Value | Uncertainty (1-sigma) | Units |
e | .1561377162283312 | 4.0874e-08 | |
a | 2.224912744531227 | 8.0899e-09 | au |
q | 1.877519949792813 | 9.0982e-08 | au |
i | 4.398189784496283 | 3.9634e-06 | deg |
node | 140.1665182582574 | 5.9144e-05 | deg |
peri | 272.2377128661684 | 6.0882e-05 | deg |
M | 175.2636240667212 | 1.4586e-05 | deg |
tp | 2458610.357096084774 (2019-May-06.85709608) | 4.8029e-05 | TDB |
period | 1212.182200047416 3.32 | 6.6113e-06 1.81e-08 | d yr |
n | .2969850571852303 | 1.6198e-09 | deg/d |
Q | 2.572305539269641 | 9.353e-09 | au |
|
| | Orbit Determination Parameters
Additional Information
|